Flag for Brazil Weather past 2 weeks in São Paulo, São Paulo, Brazil

Now
66 °F

Passing clouds.


Feels Like: 66 °F
Forecast: 56 / 71 °F
Wind: 5 mph from South

Location: Sao Paulo Airport

Current Time: Aug 27, 2014 at 11:52:49 AM

Latest Report: Aug 27, 2014 at 11:00 AM


Visibility: N/A

Pressure: 30.15 "Hg

Humidity: 56%

Dew point: 50 °F

Location of São PauloLocation

Historic Weather in São Paulo — Graph

°F

São Paulo temperature yesterday

Maximum temperature yesterday: 75 °F (at 12:00 AM)
Minimum temperature yesterday: 64 °F (at 8:00 AM)
Average temperature yesterday: 71 °F

Past Weeks' High & Low Weather Summary

 TemperatureHumidityPressure
High88 °F (Aug 25, 4:00 PM)88% (Aug 13, 2:00 PM)30.42 "Hg (Aug 13, 2:00 PM)
Low48 °F (Aug 14, 12:00 AM)13% (Aug 24, 3:00 PM)29.98 "Hg (Aug 25, 2:00 PM)
Average66 °F60%30.21 "Hg
* Reported Aug 12 10:00 AM — Aug 27 10:00 AM, São Paulo, Weather by CustomWeather, © 2014

Note: Actual official high and low records may vary slightly from our data, if they occured in-between our weather recording intervals... More about our weather records

Advertising

São Paulo weather history for previous 24 hours

 ConditionsComfort  
Time TempWeatherWind HumidityBarometerVisibility
10:00 AM
Aug 27
61 °FScattered clouds.8 mph68%30.18 "HgN/A
9:00 AM61 °FPartly sunny.9 mph68%30.15 "HgN/A
8:00 AM61 °FScattered clouds.7 mph72%30.12 "HgN/A
7:00 AM59 °FSunny.8 mph59%30.09 "Hg10 mi
6:00 AM61 °FSunny.8 mph59%30.09 "Hg10 mi
5:00 AM61 °FThundershowers. Partly cloudy.5 mph59%30.09 "Hg5 mi
4:00 AM63 °FClear.7 mph59%30.07 "Hg10 mi
3:00 AM64 °FClear.8 mph60%30.07 "Hg10 mi
2:00 AM64 °FClear.9 mph68%30.07 "Hg10 mi
1:00 AM66 °FClear.8 mph68%30.07 "Hg10 mi
12:00 AM68 °FClear.7 mph64%30.07 "Hg10 mi
11:00 PM
Aug 26
68 °FClear.8 mph69%30.09 "Hg10 mi
10:00 PM70 °FClear.5 mph69%30.07 "Hg10 mi
9:00 PM72 °FThunderstorms. Partly cloudy.5 mphN/AN/A4 mi
8:00 PM72 °FPassing clouds.3 mph61%30.04 "HgN/A
7:00 PM73 °FPassing clouds.5 mph57%30.01 "HgN/A
6:00 PM73 °FPassing clouds.3 mph57%30.01 "HgN/A
5:00 PM73 °FPassing clouds.7 mph57%29.98 "HgN/A
4:00 PM73 °FPassing clouds.6 mph53%29.98 "HgN/A
3:00 PM72 °FScattered clouds.3 mph61%30.01 "HgN/A
2:00 PM68 °FThunderstorms. Partly sunny.7 mphN/AN/AN/A
1:00 PM66 °FThunderstorms. Broken clouds.5 mph73%N/A5 mi
12:00 PM73 °FThunderstorms. Partly sunny.2 mph50%30.07 "Hg6 mi
11:00 AM73 °FClear.5 mph53%30.07 "Hg6 mi
Weather by CustomWeather, © 2014

See weather overviewHow to use our weather pages